Lapse_Rate
2.2 1.9 1.6 1.7 2.0 1.4 1.0 0.5 -0.0 -0.4 -0.9 -1.1 -1.2 -1.6 -2.0 -2.6 -2.5 -1.0 2.8 4.3 4.4 3.8 3.6 5.6 5.4 5.1 5.3 6.0 5.7 6.1 6.5 6.5 6.5 6.5 6.5 5.7 6.2 5.6 5.6 5.6 6.0 5.4 5.8 5.6 5.8
2.2 2.2 2.2 2.2 2.0 1.4 0.8 0.1 -0.1 -0.6 -1.0 -1.4 -1.7 -1.9 -2.3 -2.6 -0.5 4.0 5.2 6.1 3.6 2.4 4.7 5.1 5.5 5.6 4.9 5.4 5.2 5.4 6.5 6.5 6.5 6.2 6.5 5.6 5.0 5.7 5.7 5.3 6.0 5.3 6.1 6.5 6.2
2.4 2.3 2.3 2.1 1.6 1.2 0.7 0.1 -0.4 -0.7 -1.2 -1.6 -1.8 -2.1 -2.1 -2.1 2.2 5.9 6.5 5.9 2.3 0.9 3.4 5.5 6.3 6.3 5.1 4.9 4.9 5.6 6.5 6.5 5.9 4.6 4.3 5.3 5.4 5.7 5.0 6.5 4.5 5.7 6.1 6.2 5.8
2.0 2.0 1.9 1.8 1.3 0.9 0.4 -0.2 -0.4 -0.8 -1.4 -1.8 -2.2 -2.2 -2.2 -1.1 6.5 7.2 6.1 3.7 1.6 1.6 3.2 5.1 5.6 5.9 6.1 6.5 5.0 6.4 5.5 5.2 5.9 4.9 5.0 5.9 4.7 6.2 5.7 5.1 4.7 5.3 5.8 6.0 5.6
1.2 1.2 1.1 1.0 0.8 0.5 0.2 -0.2 -0.9 -1.4 -2.2 -2.6 -2.7 -2.3 -1.2 3.2 5.3 7.5 3.4 3.0 1.2 3.2 4.1 5.0 5.4 5.4 6.5 5.9 6.1 6.4 6.2 5.2 5.5 6.1 4.9 5.8 5.6 6.3 5.7 4.9 4.6 4.9 6.2 5.5 5.7
0.9 0.9 0.5 0.2 -0.0 0.1 -0.2 -0.8 -1.6 -2.4 -2.9 -2.9 -3.0 -2.9 -0.0 6.2 7.8 8.8 7.6 3.2 4.3 4.2 5.4 5.2 6.0 5.9 5.9 5.7 6.2 5.3 5.0 5.0 5.4 5.8 6.5 6.5 6.2 6.0 5.7 4.6 5.6 5.2 5.2 5.1 5.7
0.6 0.6 0.1 -0.3 -0.1 -0.5 -1.0 -1.7 -2.3 -2.8 -3.1 -3.1 -3.1 -1.6 3.6 4.9 7.3 7.4 7.3 7.8 7.4 7.0 6.8 7.1 6.0 5.0 6.1 6.4 6.1 4.7 6.5 6.4 5.8 5.0 6.2 6.0 6.5 6.5 5.4 4.7 5.2 5.4 5.1 4.4 5.4
0.6 0.4 -0.2 -0.8 -0.7 -1.4 -2.0 -2.2 -2.6 -3.0 -3.2 -3.4 -3.9 -1.0 4.1 7.6 7.7 7.0 6.9 7.7 8.7 7.8 7.1 6.0 6.3 5.6 5.6 5.6 6.3 6.5 6.5 6.5 6.5 5.7 5.5 5.3 6.5 6.3 4.4 5.2 4.0 3.9 4.6 4.9 4.7
0.7 0.3 -0.4 -1.1 -1.5 -1.9 -2.4 -2.9 -3.3 -3.5 -3.6 -3.9 -2.5 0.8 5.8 7.1 7.5 8.3 8.0 7.3 8.0 8.0 8.3 7.9 6.9 6.0 5.6 6.5 6.5 6.5 6.5 6.5 6.5 5.5 6.5 6.5 6.5 5.5 3.7 4.2 4.3 4.0 3.2 3.7 4.0
0.4 0.3 -0.5 -1.2 -1.7 -2.3 -2.8 -2.9 -2.5 -3.0 -2.7 -1.1 1.8 5.4 5.7 7.1 7.9 8.4 8.0 7.7 7.2 7.2 6.8 6.8 4.7 6.5 6.5 6.5 6.5 6.5 6.5 6.5 6.5 6.5 6.5 6.5 6.5 6.5 5.0 4.7 4.4 4.2 3.2 4.4 3.7
0.1 0.3 -0.6 -1.1 -2.0 -2.5 -2.9 -1.9 2.2 3.1 1.9 4.3 4.9 5.8 7.0 7.2 7.9 6.8 8.2 7.4 6.9 6.7 6.5 4.8 6.5 6.5 6.5 6.5 6.5 6.5 6.5 6.5 6.5 6.5 6.5 6.5 6.5 6.5 5.2 3.7 4.5 5.9 6.3 5.9 5.9
-0.2 0.0 -0.3 -1.4 -2.0 -2.5 -3.2 2.5 6.9 6.4 5.5 5.6 7.5 7.4 7.9 7.3 6.5 7.0 7.5 6.6 6.1 6.5 6.1 6.5 6.5 6.5 6.5 6.5 6.5 6.5 6.5 6.5 6.5 6.5 6.5 6.5 6.5 6.5 6.0 5.8 4.8 6.0 5.7 5.5 5.8
-0.7 -0.5 -1.1 -1.8 -2.5 -3.3 -0.6 4.2 6.0 4.3 5.1 6.8 7.1 7.1 7.2 7.3 6.2 6.7 7.0 6.0 6.1 6.5 6.5 6.5 6.5 6.5 6.5 6.5 6.5 6.5 6.5 6.5 6.5 6.5 6.5 6.5 6.5 6.5 6.3 6.0 6.3 5.3 4.9 4.9 5.0
-0.9 -1.0 -1.8 -2.8 -0.4 1.9 3.6 6.8 6.1 4.0 6.5 6.5 6.6 6.9 7.5 6.8 6.5 7.9 7.9 6.5 6.5 6.5 6.5 6.5 6.5 6.5 6.5 6.5 6.5 6.5 6.5 6.5 6.5 6.5 6.5 6.5 6.5 6.5 6.5 6.5 6.3 5.6 4.7 4.9 5.4
-0.7 -0.8 -2.2 0.4 0.6 4.9 6.4 5.0 4.7 2.8 6.5 6.5 6.6 8.0 7.6 6.7 5.9 7.0 7.6 6.3 6.5 6.5 6.5 6.5 6.5 6.5 6.5 6.5 6.5 6.5 6.5 6.5 6.5 6.5 6.5 6.5 6.5 6.5 6.5 6.5 6.5 5.0 4.4 3.9 4.0
-0.8 -0.6 -2.1 -0.9 -0.8 4.2 4.5 2.7 2.5 6.5 6.5 6.5 6.5 6.4 6.5 6.3 6.5 6.6 6.8 7.2 6.4 6.5 6.5 6.5 5.6 6.4 6.5 6.5 6.5 6.5 6.5 6.5 6.5 6.5 6.5 6.5 6.5 6.5 6.5 6.5 6.5 5.3 5.1 4.5 3.8
0.1 -0.5 -0.6 4.1 4.6 4.7 2.3 2.6 6.5 6.5 6.5 6.5 6.5 6.5 6.5 6.5 6.5 6.4 6.5 6.5 6.5 6.5 6.5 6.5 6.5 6.4 6.3 6.5 6.5 6.5 6.5 6.5 6.5 6.5 6.5 6.5 6.5 6.5 6.5 6.5 6.2 5.9 4.4 4.1 4.2
0.1 0.1 3.2 4.9 5.3 3.6 2.6 6.0 6.5 6.5 6.5 6.5 6.5 6.5 6.5 6.5 6.5 6.5 6.5 6.5 6.5 6.5 6.5 6.5 6.5 6.5 6.4 6.5 6.5 6.5 6.5 6.5 6.5 6.5 6.5 6.5 6.5 6.5 6.5 5.1 5.1 5.2 4.4 4.5 4.7
0.2 2.3 4.1 3.5 5.4 2.8 3.0 6.5 6.5 6.5 6.5 6.5 6.5 6.5 6.5 6.5 6.5 6.5 6.5 6.5 6.5 6.5 6.5 6.5 6.5 6.5 6.5 6.5 6.5 6.5 6.5 6.5 6.5 6.5 6.5 6.5 6.5 6.5 6.5 6.4 5.6 5.4 6.3 4.5 4.2
2.8 4.0 4.7 5.1 5.5 2.8 5.6 6.5 6.5 6.4 6.4 6.5 6.5 6.5 6.5 6.5 6.5 6.5 6.5 6.5 6.5 6.2 5.7 6.5 6.5 6.5 6.5 6.5 6.3 6.5 6.5 6.5 6.5 6.5 6.5 6.5 6.5 6.5 6.5 6.5 6.5 5.9 4.7 4.3 4.7
3.3 4.1 3.6 5.4 2.9 2.8 6.5 6.5 6.5 6.1 6.0 6.5 6.5 6.5 6.5 6.5 6.5 6.5 6.5 6.5 6.4 6.5 5.5 6.5 6.5 6.5 6.5 6.5 6.5 6.5 6.5 6.5 6.5 6.5 6.5 6.5 6.5 6.5 6.5 6.5 6.5 5.1 5.1 4.9 4.9
3.7 6.3 3.7 3.2 4.3 3.7 6.5 6.5 4.5 6.5 6.4 6.4 6.3 6.5 6.5 6.5 6.5 6.5 6.5 6.5 5.6 5.9 6.5 6.5 6.5 6.5 6.5 6.5 6.5 6.5 6.5 6.5 6.5 6.5 6.5 6.5 6.5 6.5 6.6 5.7 5.1 6.2 5.6 5.2 5.0
3.9 4.0 4.5 3.5 6.5 6.5 6.1 6.5 6.4 6.5 6.5 6.5 6.5 6.5 6.5 6.5 6.5 6.5 6.5 5.9 5.3 6.4 6.5 6.5 6.5 6.5 6.5 6.5 6.5 6.5 6.5 6.5 6.5 6.5 6.5 6.5 6.5 6.4 6.0 5.9 6.0 5.4 5.2 5.3 5.1
4.0 6.5 3.9 3.9 4.1 6.4 6.5 6.5 6.5 5.7 6.3 6.1 6.4 6.5 6.5 6.5 6.5 6.5 6.5 6.5 5.9 6.3 4.0 5.5 6.5 6.5 6.5 6.5 6.5 6.5 6.5 6.5 6.5 6.5 6.5 6.5 6.5 6.5 6.5 6.5 6.0 5.5 5.1 4.9 5.3
4.6 5.4 3.5 6.5 5.7 6.3 6.3 6.5 6.5 6.5 6.5 6.4 6.5 6.5 6.5 6.5 6.5 6.5 6.5 6.5 6.4 5.0 5.9 6.5 6.5 6.5 6.5 6.5 6.5 6.5 6.5 6.5 6.5 6.5 6.5 6.5 6.5 6.5 6.5 6.3 5.8 6.1 6.1 6.4 6.2
5.0 4.4 4.0 3.4 4.9 6.4 6.5 6.5 6.5 6.5 6.4 6.5 6.5 6.5 6.5 6.5 6.5 6.5 6.5 6.5 6.5 6.2 6.5 6.4 6.5 6.5 6.5 6.5 6.5 6.5 6.5 6.5 6.5 6.5 6.5 6.5 6.5 6.3 5.6 5.8 5.8 6.2 6.6 6.6 6.8
3.4 3.8 2.5 4.0 5.6 6.5 6.5 6.5 6.5 6.0 5.9 5.8 6.3 6.5 6.5 6.5 4.7 4.7 4.0 4.5 5.6 6.5 6.5 6.5 6.5 6.5 6.5 6.5 6.5 6.5 6.5 6.5 6.5 6.5 6.5 6.5 6.5 6.3 6.4 6.5 5.9 5.9 6.4 6.6 6.4
Wind_Speed
16 15 15 15 14 14 16 15 15 15 15 16 16 15 15 18 21 4 5 9 8 11 3 5 5 8 6 4 7 6 1 5 8 10 5 3 7 5 6 7 6 5 14 12 11
16 16 15 15 14 14 14 15 15 14 14 14 14 13 14 15 4 7 13 9 11 12 4 7 8 9 3 5 4 5 4 5 6 8 7 5 7 5 6 7 6 12 15 13 11
16 15 15 14 14 13 14 15 13 14 13 14 12 11 12 12 4 8 19 15 14 15 6 4 10 7 8 6 7 5 6 6 7 10 9 6 7 5 8 6 10 18 14 12 12
15 15 14 14 13 13 13 14 13 13 13 13 10 10 11 3 3 3 16 19 16 10 4 6 6 5 5 6 6 4 8 8 4 6 7 7 7 3 4 6 12 17 21 13 12
14 13 13 14 14 13 13 13 12 12 12 10 8 8 4 2 8 9 19 16 7 5 7 8 9 5 6 6 4 8 7 7 6 5 7 6 6 3 5 7 8 12 17 16 14
12 13 13 12 13 12 12 12 11 12 11 9 7 7 2 5 7 7 6 9 10 8 7 11 8 12 7 7 6 6 9 8 5 3 2 1 2 5 3 7 9 10 16 13 15
12 11 12 11 11 12 11 11 11 11 10 7 6 4 4 10 6 7 7 5 3 1 5 2 5 7 3 6 4 9 6 8 6 8 5 4 4 7 5 9 9 8 9 10 15
11 11 10 10 11 11 10 10 10 10 9 7 6 3 6 6 6 8 7 5 4 7 6 8 7 6 4 4 4 4 5 5 6 9 6 9 7 6 9 8 9 11 9 9 10
11 10 10 9 9 9 9 9 10 10 8 5 2 3 6 1 2 4 4 6 3 5 3 5 4 1 6 5 1 2 5 5 6 11 6 5 3 10 10 9 8 7 9 9 7
10 9 8 8 8 7 6 7 4 8 5 6 7 3 7 4 4 2 4 4 3 4 3 2 1 2 5 5 3 5 6 7 8 5 4 4 1 4 7 7 7 3 6 13 21
9 8 7 5 4 4 2 1 2 1 4 8 9 5 5 4 3 5 3 4 4 3 4 6 6 3 3 3 4 5 5 12 5 5 2 4 6 8 13 10 15 15 19 17 17
8 7 5 6 6 6 1 2 3 4 4 13 2 2 0 4 5 5 4 1 3 6 7 5 5 3 5 2 4 4 6 6 3 4 3 1 5 9 14 10 11 17 16 15 14
6 5 7 10 12 5 4 7 5 6 3 2 3 4 3 3 3 3 4 5 7 6 7 7 2 4 3 8 8 7 5 5 3 6 6 2 3 9 9 14 18 15 11 11 13
5 6 12 15 3 3 4 5 2 1 4 4 3 2 3 4 3 1 2 3 2 5 9 7 1 3 5 7 6 4 6 5 6 3 3 5 2 6 14 15 15 15 15 15 15
6 9 19 10 4 1 4 7 4 4 4 5 3 1 2 2 7 1 1 5 4 3 7 2 7 8 8 4 5 3 0 3 3 4 3 7 5 1 14 12 10 8 10 11 10
5 7 14 1 1 5 8 6 5 6 0 2 4 5 4 4 2 4 2 1 2 8 8 4 5 4 5 5 3 5 4 5 3 2 2 6 5 2 5 8 5 9 9 8 9
5 9 10 3 2 7 5 4 5 5 4 4 4 5 7 0 6 6 4 6 4 3 2 5 5 3 3 4 1 4 5 3 4 4 3 5 6 2 6 6 8 10 9 9 9
5 9 8 1 5 6 4 5 1 2 4 6 5 5 6 3 3 2 7 5 9 6 1 5 4 6 7 5 2 5 4 4 1 1 4 8 4 2 11 10 9 8 9 9 8
0 3 1 2 5 3 5 3 7 3 6 6 4 5 4 1 1 6 7 4 6 7 5 3 3 3 6 4 3 4 5 2 5 4 3 2 4 4 9 8 8 7 3 8 8
1 2 2 4 4 4 4 5 2 4 3 5 6 5 7 7 4 4 5 5 2 7 4 5 4 3 2 2 4 5 2 6 4 2 2 1 2 3 3 4 7 6 7 7 6
1 3 3 4 4 4 2 5 3 8 7 2 2 1 4 7 6 4 4 5 8 4 8 5 3 2 2 5 4 5 3 4 3 4 4 1 4 4 7 7 7 8 9 10 10
1 1 3 3 3 3 3 4 1 2 4 5 6 6 4 5 6 6 4 5 8 6 3 3 4 3 3 3 2 2 3 4 4 3 1 4 5 3 8 10 8 11 8 7 8
3 3 2 4 3 3 6 3 3 5 2 2 5 5 5 4 5 10 5 6 8 5 1 3 2 3 5 4 4 2 3 5 6 3 3 4 5 3 6 7 7 8 7 8 8
1 2 3 1 2 4 3 2 3 6 4 5 5 2 6 5 5 4 4 3 5 3 3 3 3 5 5 3 1 3 4 3 6 4 4 6 6 5 8 7 7 7 7 8 9
1 4 7 3 4 5 5 8 6 1 1 3 1 4 5 4 5 5 5 4 2 1 3 3 3 5 4 6 5 4 5 6 4 6 6 9 8 13 6 8 6 6 8 9 7
1 3 2 5 4 2 4 5 9 7 5 5 4 6 8 4 2 6 8 5 4 5 2 5 1 2 3 7 9 5 8 8 7 7 6 3 7 9 6 7 7 9 10 8 8
3 1 5 3 3 4 3 1 2 7 4 5 8 13 14 6 10 7 8 7 6 4 3 4 4 3 2 4 5 5 4 3 2 2 2 1 5 8 10 10 8 8 7 6 5
Wind_Direction
287 281 278 276 273 278 280 280 285 291 295 303 307 316 324 329 311 179 237 228 186 168 181 282 210 226 236 243 199 173 281 239 235 205 187 94 88 55 63 74 55 35 131 148 137
282 280 279 274 272 274 276 275 277 287 294 300 309 321 330 332 287 248 243 220 193 171 175 220 242 215 212 233 234 146 147 247 187 122 125 148 115 105 93 94 69 80 104 121 122
280 276 273 270 269 270 270 273 277 281 292 300 312 328 328 325 301 237 212 213 206 177 237 240 252 211 208 215 224 213 162 75 20 95 132 124 110 134 123 170 165 142 136 135 140
281 274 268 264 265 261 262 266 272 281 288 298 318 325 320 269 293 199 188 206 194 182 231 253 259 206 219 245 245 90 82 91 31 36 84 118 139 117 133 222 164 149 149 148 152
280 271 262 258 256 257 256 260 269 277 283 296 313 325 297 231 250 228 196 203 163 182 223 232 266 215 246 233 138 97 95 79 73 34 74 73 136 167 165 103 123 136 147 156 163
278 267 257 254 250 252 254 259 266 274 280 291 313 315 229 257 239 188 258 147 216 211 240 232 242 233 249 160 129 126 105 117 161 130 52 126 230 118 203 134 113 143 157 165 168
282 271 258 248 247 249 252 259 264 270 278 294 304 288 264 249 345 316 273 277 306 280 329 33 359 37 17 62 84 121 118 164 184 172 173 187 306 201 185 137 156 148 164 175 178
287 267 254 240 241 246 253 259 267 274 286 298 293 260 254 251 328 318 295 316 296 319 3 355 348 357 26 105 44 177 125 153 230 180 196 131 252 217 157 144 176 178 190 192 197
294 267 241 230 228 237 249 267 276 280 275 282 252 212 265 162 257 281 342 303 148 319 334 306 357 342 17 121 325 254 228 183 196 181 149 154 287 165 171 163 197 198 203 207 181
288 256 232 218 221 225 249 269 321 295 236 225 256 330 276 232 127 322 291 306 283 214 272 237 321 74 26 68 195 252 248 195 149 190 123 262 51 105 170 176 201 244 42 68 67
296 255 216 200 198 195 223 291 357 306 229 198 202 220 148 110 142 229 187 241 300 188 241 261 75 116 93 10 302 340 348 104 108 113 121 234 121 97 61 59 77 85 80 79 72
285 249 191 161 157 150 286 248 301 234 260 247 163 141 46 203 136 101 131 228 214 258 272 36 84 11 297 82 345 324 4 32 102 124 119 307 150 103 81 65 85 93 83 83 79
270 235 173 141 134 140 209 238 349 6 161 359 330 62 319 345 60 68 43 314 239 252 91 99 133 268 347 49 19 49 73 19 31 341 342 11 34 102 88 86 77 72 84 86 90
250 196 156 139 109 203 213 244 11 22 92 177 244 154 272 121 65 343 309 222 334 80 108 93 236 321 63 54 30 65 9 360 329 18 237 126 71 124 108 95 85 78 72 72 79
222 162 164 158 318 345 314 331 307 59 70 210 66 147 141 258 162 331 87 335 309 68 76 58 53 35 55 42 18 150 269 280 310 302 1 316 83 72 109 92 96 88 93 96 102
236 174 157 222 237 278 346 313 54 49 196 132 140 198 174 195 62 147 152 272 310 90 74 102 87 48 355 308 239 281 285 260 252 157 33 286 116 289 99 140 113 110 103 95 104
219 182 174 282 225 332 334 45 31 109 134 156 182 149 129 340 173 163 114 52 33 99 157 106 86 146 353 314 34 1 31 2 7 17 212 315 62 296 114 141 119 106 99 103 108
190 161 237 208 2 12 39 48 289 234 209 140 152 137 113 109 347 96 102 51 4 13 240 132 7 5 343 63 359 307 84 125 80 44 299 334 87 124 98 94 100 126 151 145 139
288 238 273 279 19 50 64 56 207 248 109 127 164 129 84 70 278 95 77 85 15 1 77 83 87 66 39 339 35 350 45 183 107 326 47 130 78 72 121 118 136 151 169 165 152
156 135 215 194 69 56 70 238 244 8 72 125 176 196 166 164 199 107 69 357 39 9 41 13 99 348 135 328 350 111 215 44 2 89 329 78 137 203 130 122 77 75 67 62 79
38 81 254 163 69 49 179 237 67 29 16 44 282 103 132 149 181 102 71 35 14 31 58 19 78 279 22 33 27 3 13 46 95 112 148 347 295 174 98 115 90 80 73 81 79
169 77 256 72 90 210 233 232 48 73 308 18 37 65 109 66 63 74 94 61 355 341 65 17 118 66 115 94 344 306 68 85 106 322 79 136 281 109 92 68 66 80 85 82 74
158 141 304 83 147 284 274 46 83 176 221 51 41 39 52 88 84 106 88 26 22 47 80 348 30 48 10 4 334 342 91 112 111 103 187 129 261 215 83 80 110 97 76 70 70
61 91 360 40 235 222 188 125 67 15 47 48 91 53 73 79 65 115 107 69 55 56 333 55 73 142 173 211 221 347 317 172 133 117 205 201 250 317 84 44 66 55 48 71 68
236 206 170 213 288 249 181 165 138 109 340 93 176 160 135 126 123 106 100 146 104 86 19 73 93 16 329 324 319 302 317 322 290 220 154 240 228 108 128 112 91 75 70 62 51
277 84 77 183 212 268 163 196 161 185 133 229 173 162 105 87 160 168 144 164 169 214 103 24 133 17 319 18 13 323 308 300 297 298 305 25 93 119 108 73 65 57 60 50 32
244 257 105 307 197 93 246 50 52 107 3 259 104 83 75 69 69 48 85 73 80 117 88 67 124 79 257 355 350 3 254 248 259 16 138 255 91 82 52 49 78 71 56 50 28